Starlink 3572

operational
NORAD ID: 51879 Int'l Des: 2022-022 Owner: SPXS Country: US Constellation: starlink
LEOCIRCULAR

Über Starlink 3572

Beschreibung wird geladen...

Live-Position

3D-Globus wird geladen...

Nächste Überflüge

Höhenverlauf

Altitude vs Time

uPlot chart will show altitude changes over time

Zweizeiliger Elementsatz

1 51879U 22022AD 25307.72605627 -.00008412 00000-0 -51091-3 0 9996
2 51879 53.2164 204.5933 0002154 88.1287 271.9952 15.08845063204231
Epoch: 3. Nov. 2025 • Age: 34 hours

Aktueller Status

Höhe 540.4 km
Geschwindigkeit 7.60 km/s
Subsatellitenpunkt 29.24°N, 102.58°W
Startdatum 3. März 2022
Alter 3.6 years
Typ internet

Technische Details

Klassifizierung Payload
Masse 297.00 kg
Trockenmasse 275.00 kg
Gesamtmasse 297.00 kg
Länge 0.20 m
Durchmesser 2.80 m
Spannweite 9.00 m
Form Box + pan
Hersteller SPXS
Bus-Typ Starlink
Phasenstatus In Orbit
Besitzer/Staat SPXS/US

Große Konstellationen

Loading constellations...